Weather in Redkino

Russia / Tver Oblast     56°38′59″N   36°17′40″E
temp.,
°C
wind,
m/s
gust,
m/s
humid.,
%
clouds,
%
prec.,
mm/h
press.,
hPa
HPBL,
m
8 may, sat
sat800:00+6se3985100 0.0 1010168
03:00+7sse51479100 0.0 1008546
06:00+7se61392100 5.1 10061042
09:00+8sse61293100 5.6 1005806
12:00+8sse3794100 0.2 1005622
15:00+10sse2286100 0.7 1004413
18:00+8nnw51092100 2.9 1004564
21:00+6nnw61187100 3.6 1005844
9 may, sun
sun900:00+5nw51189100 0.4 1007740
03:00+3nw61290100 0.6 1009875
06:00+3nw51287100 0.1 1011833
09:00+4nw5108194 0.1 1014931
12:00+10nw6946100 0.0 10162128
15:00+11nw6841100 0.0 10182390
18:00+11nw47495 0.0 10201680
21:00+6wnw37675 0.0 1023115
10 may, mon
mon1000:00+4wnw226587 0.0 102525
03:00+3wsw22695 0.0 102713
06:00+4ssw257245 0.0 1028115
09:00+10sw465375 0.0 1029510
12:00+14sw564589 0.0 10281585
15:00+16sw55478 0.0 10281440
18:00+16sw36585 0.0 1028753
21:00+10ssw35795 0.0 102973
11 may, tue
tue1100:00+8sw33835 0.0 103042
03:00+7sw228783 0.0 103113
06:00+8ssw2384100 0.0 103283
09:00+13s2365100 0.0 1032359
12:00+17s3352100 0.0 10311070
15:00+19s2347100 0.0 10301337
18:00+19se2356100 0.0 1029392
21:00+13se347819 0.0 102949
12 may, wed
wed1200:00+11sse238468 0.0 103038
03:00+9ese228877 0.0 102910
06:00+10ese258659 0.0 1030132
09:00+16e36635 0.0 1029568
12:00+19ese57470 0.0 10281256
15:00+21ese56445 0.0 10261456
18:00+20ese36555 0.0 1026552
21:00+14e34755 0.0 102654